| time (UTC) | temp C | wind direction | speed KPH | gust KPH | rain 1hr cm | rain 24hr cm | rain mn cm | humidity % | barometer mb |
| 20260509024052 | 13 | 54 | 0.0 | 1.6 | 0.00 | 0.00 | 0.00 | 85 | 1013.4 |
| 20260509023550 | 13 | 51 | 0.0 | 1.6 | 0.00 | 0.00 | 0.00 | 86 | 1013.3 |
| 20260509023046 | 13 | 51 | 0.0 | 0.0 | 0.00 | 0.00 | 0.00 | 86 | 1013.3 |
| 20260509022543 | 13 | 51 | 0.0 | 1.6 | 0.00 | 0.00 | 0.00 | 86 | 1013.4 |
| 20260509022041 | 13 | 65 | 0.0 | 0.0 | 0.00 | 0.00 | 0.00 | 86 | 1013.2 |
| 20260509021538 | 13 | 62 | 0.0 | 0.0 | 0.00 | 0.00 | 0.00 | 87 | 1013.2 |
| 20260509021034 | 13 | 75 | 0.0 | 0.0 | 0.00 | 0.00 | 0.00 | 87 | 1012.9 |
| 20260509020533 | 13 | 76 | 0.0 | 0.0 | 0.00 | 0.00 | 0.00 | 85 | 1012.7 |
| 20260509020029 | 13 | 77 | 0.0 | 0.0 | 0.00 | 0.00 | 0.00 | 85 | 1012.6 |
| 20260509015529 | 13 | 74 | 0.0 | 0.0 | 0.00 | 0.00 | 0.00 | 86 | 1012.6 |
| 20260509015025 | 13 | 73 | 0.0 | 0.0 | 0.00 | 0.00 | 0.00 | 86 | 1012.5 |
| 20260509014522 | 13 | 74 | 0.0 | 0.0 | 0.00 | 0.00 | 0.00 | 86 | 1012.6 |
| 20260509014018 | 14 | 74 | 0.0 | 0.0 | 0.00 | 0.00 | 0.00 | 85 | 1012.6 |
| 20260509013515 | 13 | 74 | 0.0 | 0.0 | 0.00 | 0.00 | 0.00 | 85 | 1012.6 |
| 20260509013011 | 14 | 74 | 0.0 | 0.0 | 0.00 | 0.00 | 0.00 | 84 | 1012.7 |
| 20260509012508 | 15 | 109 | 0.0 | 0.0 | 0.00 | 0.00 | 0.00 | 84 | 1012.7 |
| 20260509012004 | 15 | 147 | 1.6 | 3.2 | 0.00 | 0.00 | 0.00 | 83 | 1012.7 |
| 20260509011502 | 15 | 74 | 0.0 | 1.6 | 0.00 | 0.00 | 0.00 | 81 | 1012.7 |
| 20260509010959 | 15 | 33 | 0.0 | 0.0 | 0.00 | 0.00 | 0.00 | 79 | 1012.6 |
| 20260509010457 | 15 | 34 | 1.6 | 1.6 | 0.00 | 0.00 | 0.00 | 76 | 1012.7 |
| 20260509005954 | 15 | 251 | 0.0 | 1.6 | 0.00 | 0.00 | 0.00 | 78 | 1012.6 |
| 20260509005452 | 15 | 43 | 1.6 | 1.6 | 0.00 | 0.00 | 0.00 | 81 | 1012.7 |
| 20260509004951 | 15 | 131 | 0.0 | 0.0 | 0.00 | 0.00 | 0.00 | 81 | 1012.3 |
| 20260509004449 | 15 | 131 | 0.0 | 0.0 | 0.00 | 0.00 | 0.00 | 81 | 1012.0 |
| 20260509003946 | 15 | 131 | 0.0 | 0.0 | 0.00 | 0.00 | 0.00 | 80 | 1011.8 |
| 20260509003444 | 15 | 131 | 0.0 | 0.0 | 0.00 | 0.00 | 0.00 | 78 | 1011.8 |
| 20260509002941 | 15 | 132 | 0.0 | 0.0 | 0.00 | 0.00 | 0.00 | 78 | 1011.9 |
| 20260509002439 | 15 | 143 | 1.6 | 1.6 | 0.00 | 0.00 | 0.00 | 78 | 1012.0 |
| 20260509001936 | 15 | 142 | 0.0 | 0.0 | 0.00 | 0.00 | 0.00 | 79 | 1011.9 |
| 20260509001432 | 15 | 142 | 1.6 | 1.6 | 0.00 | 0.00 | 0.00 | 78 | 1011.9 |
| 20260509000929 | 15 | 294 | 0.0 | 0.0 | 0.00 | 0.00 | 0.00 | 77 | 1012.1 |
| 20260509000427 | 16 | 295 | 0.0 | 0.0 | 0.00 | 0.00 | 0.00 | 78 | 1012.2 |
| 20260508235922 | 16 | 295 | 0.0 | 0.0 | 0.00 | 0.00 | 0.00 | 79 | 1011.9 |
| 20260508235421 | 16 | 294 | 0.0 | 0.0 | 0.00 | 0.00 | 0.00 | 78 | 1011.9 |
| 20260508234917 | 16 | 294 | 0.0 | 0.0 | 0.00 | 0.00 | 0.00 | 77 | 1011.9 |
| 20260508234414 | 16 | 294 | 0.0 | 0.0 | 0.00 | 0.00 | 0.00 | 76 | 1011.8 |
| 20260508233912 | 16 | 295 | 0.0 | 0.0 | 0.00 | 0.00 | 0.00 | 73 | 1011.9 |
| 20260508233411 | 16 | 295 | 0.0 | 0.0 | 0.00 | 0.00 | 0.00 | 71 | 1011.7 |
| 20260508232908 | 16 | 295 | 0.0 | 0.0 | 0.00 | 0.00 | 0.00 | 73 | 1011.7 |
| 20260508232404 | 16 | 295 | 0.0 | 0.0 | 0.00 | 0.00 | 0.00 | 71 | 1011.8 |
| 20260508231902 | 17 | 295 | 0.0 | 0.0 | 0.00 | 0.00 | 0.00 | 72 | 1011.8 |
| 20260508231359 | 17 | 295 | 0.0 | 0.0 | 0.00 | 0.00 | 0.00 | 69 | 1011.9 |
| 20260508230855 | 17 | 295 | 0.0 | 0.0 | 0.00 | 0.00 | 0.00 | 64 | 1012.0 |
| 20260508230352 | 17 | 295 | 0.0 | 0.0 | 0.00 | 0.00 | 0.00 | 63 | 1011.7 |
| 20260508225849 | 18 | 295 | 0.0 | 0.0 | 0.00 | 0.00 | 0.00 | 63 | 1011.7 |
| 20260508225345 | 18 | 295 | 0.0 | 0.0 | 0.00 | 0.00 | 0.00 | 55 | 1011.8 |
| 20260508224844 | 18 | 295 | 0.0 | 0.0 | 0.00 | 0.00 | 0.00 | 51 | 1011.8 |
| 20260508224341 | 19 | 261 | 0.0 | 1.6 | 0.00 | 0.00 | 0.00 | 48 | 1011.9 |
| 20260508223838 | 18 | 261 | 0.0 | 1.6 | 0.00 | 0.00 | 0.00 | 48 | 1011.8 |
| 20260508223335 | 19 | 261 | 0.0 | 0.0 | 0.00 | 0.00 | 0.00 | 47 | 1011.5 |
| 20260508222833 | 19 | 261 | 0.0 | 0.0 | 0.00 | 0.00 | 0.00 | 48 | 1011.7 |
| 20260508222330 | 19 | 261 | 0.0 | 0.0 | 0.00 | 0.00 | 0.00 | 49 | 1011.7 |
| 20260508221827 | 19 | 261 | 0.0 | 0.0 | 0.00 | 0.00 | 0.00 | 49 | 1011.6 |
| 20260508221322 | 19 | 261 | 0.0 | 0.0 | 0.00 | 0.00 | 0.00 | 49 | 1011.5 |
| 20260508220819 | 19 | 261 | 0.0 | 0.0 | 0.00 | 0.00 | 0.00 | 44 | 1011.6 |
| 20260508220315 | 19 | 261 | 0.0 | 1.6 | 0.00 | 0.00 | 0.00 | 44 | 1011.6 |
| 20260508215812 | 20 | 261 | 0.0 | 1.6 | 0.00 | 0.00 | 0.00 | 44 | 1011.6 |
| 20260508215308 | 20 | 261 | 0.0 | 1.6 | 0.00 | 0.00 | 0.00 | 43 | 1011.6 |
| 20260508214806 | 20 | 263 | 1.6 | 3.2 | 0.00 | 0.00 | 0.00 | 42 | 1011.6 |
| 20260508214302 | 20 | 222 | 0.0 | 1.6 | 0.00 | 0.00 | 0.00 | 42 | 1011.7 |
| 20260508213759 | 20 | 175 | 1.6 | 8.0 | 0.00 | 0.00 | 0.00 | 43 | 1011.6 |
| 20260508213256 | 20 | 229 | 3.2 | 3.2 | 0.00 | 0.00 | 0.00 | 42 | 1011.5 |
| 20260508212752 | 20 | 166 | 0.0 | 4.8 | 0.00 | 0.00 | 0.00 | 44 | 1011.6 |
| 20260508212248 | 20 | 3 | 1.6 | 3.2 | 0.00 | 0.00 | 0.00 | 42 | 1011.7 |
| 20260508211744 | 20 | 253 | 3.2 | 3.2 | 0.00 | 0.00 | 0.00 | 42 | 1011.6 |
| 20260508211240 | 20 | 266 | 4.8 | 4.8 | 0.00 | 0.00 | 0.00 | 43 | 1011.9 |
| 20260508210738 | 20 | 197 | 1.6 | 3.2 | 0.00 | 0.00 | 0.00 | 43 | 1012.0 |
| 20260508210235 | 20 | 216 | 0.0 | 1.6 | 0.00 | 0.00 | 0.00 | 41 | 1011.8 |
| 20260508205732 | 20 | 219 | 3.2 | 9.7 | 0.00 | 0.00 | 0.00 | 42 | 1012.1 |
| 20260508205228 | 20 | 214 | 0.0 | 1.6 | 0.00 | 0.00 | 0.00 | 43 | 1012.0 |
| 20260508204724 | 20 | 216 | 0.0 | 3.2 | 0.00 | 0.00 | 0.00 | 41 | 1012.3 |
| 20260508204221 | 20 | 222 | 1.6 | 4.8 | 0.00 | 0.00 | 0.00 | 40 | 1012.3 |
| 20260508203717 | 20 | 214 | 1.6 | 1.6 | 0.00 | 0.00 | 0.00 | 42 | 1012.7 |
| 20260508203213 | 20 | 240 | 0.0 | 3.2 | 0.00 | 0.00 | 0.00 | 43 | 1012.8 |
| 20260508202709 | 20 | 245 | 0.0 | 3.2 | 0.00 | 0.00 | 0.00 | 41 | 1012.6 |
| 20260508202207 | 20 | 252 | 3.2 | 8.0 | 0.00 | 0.00 | 0.00 | 41 | 1012.7 |
| 20260508201704 | 20 | 278 | 1.6 | 4.8 | 0.00 | 0.00 | 0.00 | 40 | 1012.8 |
| 20260508201200 | 20 | 242 | 4.8 | 8.0 | 0.00 | 0.00 | 0.00 | 40 | 1013.0 |
| 20260508200657 | 20 | 251 | 1.6 | 3.2 | 0.00 | 0.00 | 0.00 | 44 | 1012.9 |
| 20260508200153 | 20 | 266 | 4.8 | 9.7 | 0.00 | 0.00 | 0.00 | 40 | 1012.9 |
| 20260508195650 | 20 | 326 | 4.8 | 4.8 | 0.00 | 0.00 | 0.00 | 40 | 1012.9 |
| 20260508195146 | 20 | 254 | 1.6 | 8.0 | 0.00 | 0.00 | 0.00 | 39 | 1012.9 |
| 20260508194643 | 20 | 28 | 4.8 | 4.8 | 0.00 | 0.00 | 0.00 | 40 | 1012.8 |
| 20260508194140 | 20 | 315 | 3.2 | 4.8 | 0.00 | 0.00 | 0.00 | 40 | 1013.2 |
| 20260508193637 | 20 | 254 | 4.8 | 4.8 | 0.00 | 0.00 | 0.00 | 41 | 1013.2 |
| 20260508193133 | 20 | 266 | 3.2 | 4.8 | 0.00 | 0.00 | 0.00 | 40 | 1013.0 |
| 20260508192630 | 20 | 247 | 3.2 | 4.8 | 0.00 | 0.00 | 0.00 | 40 | 1013.1 |
| 20260508192128 | 20 | 279 | 4.8 | 4.8 | 0.00 | 0.00 | 0.00 | 39 | 1013.2 |
| 20260508191624 | 20 | 261 | 1.6 | 8.0 | 0.00 | 0.00 | 0.00 | 40 | 1013.2 |
| 20260508191121 | 20 | 289 | 4.8 | 8.0 | 0.00 | 0.00 | 0.00 | 39 | 1013.3 |
| 20260508190619 | 20 | 221 | 4.8 | 9.7 | 0.00 | 0.00 | 0.00 | 39 | 1013.4 |
| 20260508190114 | 21 | 205 | 6.4 | 11.3 | 0.00 | 0.00 | 0.00 | 40 | 1013.6 |
| 20260508185612 | 21 | 267 | 4.8 | 4.8 | 0.00 | 0.00 | 0.00 | 39 | 1013.4 |
| 20260508185109 | 21 | 168 | 9.7 | 16.1 | 0.00 | 0.00 | 0.00 | 39 | 1013.4 |
| 20260508184606 | 21 | 272 | 1.6 | 8.0 | 0.00 | 0.00 | 0.00 | 39 | 1013.8 |
| 20260508184103 | 20 | 249 | 1.6 | 4.8 | 0.00 | 0.00 | 0.00 | 39 | 1013.9 |
| 20260508183559 | 21 | 222 | 6.4 | 9.7 | 0.00 | 0.00 | 0.00 | 39 | 1013.8 |
| 20260508183055 | 20 | 109 | 4.8 | 8.0 | 0.00 | 0.00 | 0.00 | 41 | 1013.7 |
| 20260508182552 | 20 | 217 | 1.6 | 9.7 | 0.00 | 0.00 | 0.00 | 40 | 1014.0 |
| 20260508182049 | 20 | 278 | 8.0 | 12.9 | 0.00 | 0.00 | 0.00 | 39 | 1014.2 |
| 20260508181543 | 20 | 237 | 1.6 | 4.8 | 0.00 | 0.00 | 0.00 | 42 | 1014.2 |
| 20260508181042 | 20 | 237 | 3.2 | 12.9 | 0.00 | 0.00 | 0.00 | 41 | 1014.2 |
| 20260508180538 | 20 | 285 | 6.4 | 9.7 | 0.00 | 0.00 | 0.00 | 40 | 1014.5 |
| 20260508180034 | 20 | 242 | 4.8 | 9.7 | 0.00 | 0.00 | 0.00 | 39 | 1014.5 |
| 20260508175531 | 20 | 248 | 8.0 | 12.9 | 0.00 | 0.00 | 0.00 | 40 | 1014.7 |
| 20260508175028 | 20 | 265 | 3.2 | 4.8 | 0.00 | 0.00 | 0.00 | 40 | 1014.5 |
| 20260508174526 | 20 | 225 | 4.8 | 9.7 | 0.00 | 0.00 | 0.00 | 42 | 1014.7 |
| 20260508174023 | 20 | 217 | 3.2 | 8.0 | 0.00 | 0.00 | 0.00 | 42 | 1014.5 |
| 20260508173520 | 19 | 236 | 3.2 | 4.8 | 0.00 | 0.00 | 0.00 | 44 | 1014.6 |
| 20260508173016 | 19 | 234 | 3.2 | 4.8 | 0.00 | 0.00 | 0.00 | 44 | 1014.9 |
| 20260508172513 | 19 | 249 | 4.8 | 9.7 | 0.00 | 0.00 | 0.00 | 45 | 1015.2 |
| 20260508172009 | 18 | 89 | 0.0 | 3.2 | 0.00 | 0.00 | 0.00 | 47 | 1015.1 |
| 20260508171506 | 18 | 189 | 3.2 | 9.7 | 0.00 | 0.00 | 0.00 | 45 | 1015.2 |
| 20260508171002 | 18 | 233 | 8.0 | 9.7 | 0.00 | 0.00 | 0.00 | 44 | 1015.2 |
| 20260508170500 | 18 | 248 | 4.8 | 8.0 | 0.00 | 0.00 | 0.00 | 44 | 1015.3 |
| 20260508165957 | 18 | 280 | 3.2 | 4.8 | 0.00 | 0.00 | 0.00 | 46 | 1015.3 |
| 20260508165455 | 19 | 239 | 4.8 | 4.8 | 0.00 | 0.00 | 0.00 | 44 | 1015.5 |
| 20260508164950 | 19 | 202 | 3.2 | 4.8 | 0.00 | 0.00 | 0.00 | 46 | 1015.7 |
| 20260508164447 | 18 | 301 | 3.2 | 8.0 | 0.00 | 0.00 | 0.00 | 46 | 1015.7 |
| 20260508163944 | 18 | 285 | 3.2 | 9.7 | 0.00 | 0.00 | 0.00 | 45 | 1015.8 |
| 20260508163442 | 18 | 230 | 6.4 | 9.7 | 0.00 | 0.00 | 0.00 | 45 | 1016.0 |
| 20260508162937 | 19 | 229 | 4.8 | 8.0 | 0.00 | 0.00 | 0.00 | 46 | 1016.0 |
| 20260508162435 | 19 | 308 | 6.4 | 9.7 | 0.00 | 0.00 | 0.00 | 45 | 1016.1 |
| 20260508161932 | 19 | 240 | 1.6 | 3.2 | 0.00 | 0.00 | 0.00 | 46 | 1016.0 |
| 20260508161429 | 18 | 249 | 3.2 | 11.3 | 0.00 | 0.00 | 0.00 | 45 | 1016.0 |
| 20260508160926 | 18 | 226 | 3.2 | 8.0 | 0.00 | 0.00 | 0.00 | 47 | 1016.2 |
| 20260508160425 | 18 | 258 | 3.2 | 4.8 | 0.00 | 0.00 | 0.00 | 47 | 1016.1 |
| 20260508155921 | 18 | 303 | 4.8 | 8.0 | 0.00 | 0.00 | 0.00 | 47 | 1016.3 |
| 20260508155418 | 18 | 273 | 1.6 | 4.8 | 0.00 | 0.00 | 0.00 | 52 | 1016.3 |
| 20260508154915 | 18 | 209 | 3.2 | 9.7 | 0.00 | 0.00 | 0.00 | 47 | 1016.3 |
| 20260508154413 | 18 | 235 | 4.8 | 8.0 | 0.00 | 0.00 | 0.00 | 47 | 1016.3 |
| 20260508153909 | 17 | 178 | 1.6 | 11.3 | 0.00 | 0.00 | 0.00 | 52 | 1016.4 |
| 20260508153406 | 17 | 232 | 6.4 | 9.7 | 0.00 | 0.00 | 0.00 | 47 | 1016.5 |
| 20260508152902 | 17 | 333 | 3.2 | 9.7 | 0.00 | 0.00 | 0.00 | 52 | 1016.5 |
| 20260508152359 | 17 | 279 | 4.8 | 8.0 | 0.00 | 0.00 | 0.00 | 49 | 1016.7 |
| 20260508151855 | 17 | 294 | 4.8 | 4.8 | 0.00 | 0.00 | 0.00 | 50 | 1016.6 |
| 20260508151352 | 17 | 273 | 6.4 | 9.7 | 0.00 | 0.00 | 0.00 | 49 | 1016.7 |
| 20260508150848 | 16 | 267 | 1.6 | 8.0 | 0.00 | 0.00 | 0.00 | 51 | 1016.6 |
| 20260508150346 | 17 | 284 | 6.4 | 11.3 | 0.00 | 0.00 | 0.00 | 49 | 1016.7 |
| 20260508145841 | 16 | 224 | 1.6 | 8.0 | 0.00 | 0.00 | 0.00 | 50 | 1016.7 |
| 20260508145338 | 16 | 222 | 4.8 | 4.8 | 0.00 | 0.00 | 0.00 | 53 | 1016.9 |
| 20260508144835 | 16 | 247 | 8.0 | 11.3 | 0.00 | 0.00 | 0.00 | 50 | 1017.1 |
| 20260508144333 | 16 | 197 | 4.8 | 4.8 | 0.00 | 0.00 | 0.00 | 51 | 1016.9 |
| 20260508143830 | 16 | 325 | 4.8 | 9.7 | 0.00 | 0.00 | 0.00 | 53 | 1016.9 |
| 20260508143327 | 16 | 212 | 1.6 | 4.8 | 0.00 | 0.00 | 0.00 | 52 | 1016.7 |
| 20260508142824 | 15 | 247 | 3.2 | 4.8 | 0.00 | 0.00 | 0.00 | 53 | 1017.0 |
| 20260508142320 | 15 | 352 | 3.2 | 3.2 | 0.00 | 0.00 | 0.00 | 53 | 1016.7 |
| 20260508141817 | 15 | 350 | 0.0 | 8.0 | 0.00 | 0.00 | 0.00 | 53 | 1017.0 |
| 20260508141314 | 15 | 239 | 6.4 | 11.3 | 0.00 | 0.00 | 0.00 | 52 | 1017.3 |
| 20260508140811 | 15 | 279 | 6.4 | 11.3 | 0.00 | 0.00 | 0.00 | 53 | 1017.0 |
| 20260508140308 | 14 | 264 | 3.2 | 4.8 | 0.00 | 0.00 | 0.00 | 53 | 1017.2 |
| 20260508135804 | 14 | 289 | 6.4 | 11.3 | 0.00 | 0.00 | 0.00 | 52 | 1017.3 |
| 20260508135300 | 14 | 252 | 4.8 | 8.0 | 0.00 | 0.00 | 0.00 | 53 | 1017.1 |
| 20260508134756 | 13 | 234 | 4.8 | 8.0 | 0.00 | 0.00 | 0.00 | 53 | 1017.4 |
| 20260508134253 | 13 | 250 | 8.0 | 12.9 | 0.00 | 0.00 | 0.00 | 52 | 1017.2 |
| 20260508133750 | 13 | 146 | 1.6 | 9.7 | 0.00 | 0.00 | 0.00 | 53 | 1017.1 |
| 20260508133248 | 13 | 242 | 6.4 | 9.7 | 0.00 | 0.00 | 0.00 | 53 | 1017.2 |
| 20260508132745 | 13 | 287 | 4.8 | 11.3 | 0.00 | 0.00 | 0.00 | 54 | 1017.3 |
| 20260508132243 | 12 | 252 | 1.6 | 3.2 | 0.00 | 0.00 | 0.00 | 55 | 1017.0 |
| 20260508131738 | 12 | 294 | 1.6 | 3.2 | 0.00 | 0.00 | 0.00 | 55 | 1017.1 |
| 20260508131235 | 12 | 267 | 3.2 | 4.8 | 0.00 | 0.00 | 0.00 | 54 | 1017.2 |
| 20260508130731 | 12 | 258 | 4.8 | 4.8 | 0.00 | 0.00 | 0.00 | 54 | 1017.3 |
| 20260508130229 | 13 | 237 | 3.2 | 4.8 | 0.00 | 0.00 | 0.00 | 54 | 1017.0 |
| 20260508125724 | 13 | 279 | 4.8 | 9.7 | 0.00 | 0.00 | 0.00 | 52 | 1017.3 |
| 20260508125220 | 13 | 209 | 1.6 | 4.8 | 0.00 | 0.00 | 0.00 | 53 | 1017.2 |
| 20260508124719 | 13 | 261 | 1.6 | 9.7 | 0.00 | 0.00 | 0.00 | 53 | 1017.1 |
| 20260508124216 | 13 | 197 | 3.2 | 4.8 | 0.00 | 0.00 | 0.00 | 54 | 1017.3 |
| 20260508123714 | 12 | 176 | 0.0 | 1.6 | 0.00 | 0.00 | 0.00 | 55 | 1017.0 |
| 20260508123212 | 12 | 188 | 4.8 | 8.0 | 0.00 | 0.00 | 0.00 | 54 | 1016.7 |
| 20260508122707 | 12 | 171 | 3.2 | 4.8 | 0.00 | 0.00 | 0.00 | 55 | 1016.9 |
| 20260508122204 | 11 | 172 | 0.0 | 4.8 | 0.00 | 0.00 | 0.00 | 57 | 1016.9 |
| 20260508121702 | 11 | 173 | 3.2 | 4.8 | 0.00 | 0.00 | 0.00 | 59 | 1017.0 |
| 20260508121200 | 11 | 153 | 0.0 | 3.2 | 0.00 | 0.00 | 0.00 | 59 | 1017.2 |
| 20260508120657 | 11 | 150 | 0.0 | 3.2 | 0.00 | 0.00 | 0.00 | 61 | 1017.0 |
| 20260508120156 | 11 | 172 | 1.6 | 3.2 | 0.00 | 0.00 | 0.00 | 60 | 1017.0 |
| 20260508115653 | 10 | 152 | 0.0 | 3.2 | 0.00 | 0.00 | 0.00 | 61 | 1017.0 |
| 20260508115150 | 10 | 170 | 1.6 | 3.2 | 0.00 | 0.00 | 0.00 | 61 | 1017.0 |
| 20260508114647 | 10 | 171 | 0.0 | 1.6 | 0.00 | 0.00 | 0.00 | 61 | 1016.7 |
| 20260508114143 | 10 | 157 | 0.0 | 3.2 | 0.00 | 0.00 | 0.00 | 60 | 1016.7 |
| 20260508113640 | 10 | 168 | 1.6 | 3.2 | 0.00 | 0.00 | 0.00 | 60 | 1017.0 |
| 20260508113138 | 10 | 165 | 0.0 | 3.2 | 0.00 | 0.00 | 0.00 | 60 | 1016.7 |
| 20260508112634 | 10 | 169 | 1.6 | 3.2 | 0.00 | 0.00 | 0.00 | 59 | 1016.6 |
| 20260508112131 | 10 | 169 | 1.6 | 3.2 | 0.00 | 0.00 | 0.00 | 58 | 1016.6 |
| 20260508111628 | 10 | 168 | 0.0 | 1.6 | 0.00 | 0.00 | 0.00 | 59 | 1016.4 |
| 20260508111120 | 10 | 162 | 0.0 | 3.2 | 0.00 | 0.00 | 0.00 | 58 | 1016.4 |
| 20260508110618 | 10 | 171 | 3.2 | 4.8 | 0.00 | 0.00 | 0.00 | 58 | 1016.5 |
| 20260508110114 | 10 | 169 | 1.6 | 1.6 | 0.00 | 0.00 | 0.00 | 58 | 1016.4 |
| 20260508105614 | 10 | 168 | 1.6 | 3.2 | 0.00 | 0.00 | 0.00 | 59 | 1016.4 |
| 20260508105111 | 10 | 167 | 0.0 | 1.6 | 0.00 | 0.00 | 0.00 | 58 | 1016.5 |
| 20260508104609 | 10 | 168 | 1.6 | 3.2 | 0.00 | 0.00 | 0.00 | 58 | 1016.3 |
| 20260508104105 | 10 | 164 | 0.0 | 3.2 | 0.00 | 0.00 | 0.00 | 58 | 1016.3 |
| 20260508103602 | 10 | 162 | 0.0 | 1.6 | 0.00 | 0.00 | 0.00 | 59 | 1016.4 |
| 20260508103100 | 10 | 148 | 0.0 | 1.6 | 0.00 | 0.00 | 0.00 | 61 | 1016.5 |
| 20260508102557 | 10 | 151 | 0.0 | 1.6 | 0.00 | 0.00 | 0.00 | 60 | 1016.5 |
| 20260508102054 | 10 | 165 | 1.6 | 3.2 | 0.00 | 0.00 | 0.00 | 58 | 1016.5 |
| 20260508101552 | 10 | 162 | 1.6 | 3.2 | 0.00 | 0.00 | 0.00 | 59 | 1016.5 |
| 20260508101049 | 10 | 164 | 0.0 | 1.6 | 0.00 | 0.00 | 0.00 | 60 | 1016.3 |
| 20260508100547 | 10 | 164 | 0.0 | 1.6 | 0.00 | 0.00 | 0.00 | 61 | 1016.3 |
| 20260508100043 | 10 | 166 | 1.6 | 3.2 | 0.00 | 0.00 | 0.00 | 60 | 1016.2 |
| 20260508095541 | 10 | 164 | 0.0 | 3.2 | 0.00 | 0.00 | 0.00 | 62 | 1016.3 |
| 20260508095037 | 10 | 163 | 0.0 | 1.6 | 0.00 | 0.00 | 0.00 | 62 | 1016.4 |
| 20260508094535 | 10 | 163 | 0.0 | 1.6 | 0.00 | 0.00 | 0.00 | 63 | 1016.5 |
| 20260508094031 | 9 | 163 | 0.0 | 0.0 | 0.00 | 0.00 | 0.00 | 64 | 1016.4 |
| 20260508093528 | 9 | 163 | 0.0 | 1.6 | 0.00 | 0.00 | 0.00 | 65 | 1016.3 |
| 20260508093026 | 9 | 163 | 0.0 | 1.6 | 0.00 | 0.00 | 0.00 | 68 | 1016.4 |
| 20260508092523 | 9 | 163 | 0.0 | 0.0 | 0.00 | 0.00 | 0.00 | 66 | 1016.4 |
| 20260508092022 | 9 | 163 | 0.0 | 0.0 | 0.00 | 0.00 | 0.00 | 67 | 1016.5 |
| 20260508091519 | 9 | 163 | 0.0 | 1.6 | 0.00 | 0.00 | 0.00 | 66 | 1016.5 |
| 20260508091016 | 9 | 163 | 0.0 | 1.6 | 0.00 | 0.00 | 0.00 | 65 | 1016.5 |
| 20260508090514 | 9 | 163 | 0.0 | 0.0 | 0.00 | 0.00 | 0.00 | 65 | 1016.6 |
| 20260508090011 | 9 | 163 | 0.0 | 1.6 | 0.00 | 0.00 | 0.00 | 66 | 1016.7 |
| 20260508085507 | 9 | 163 | 0.0 | 1.6 | 0.00 | 0.00 | 0.00 | 66 | 1016.6 |
| 20260508085004 | 9 | 163 | 0.0 | 1.6 | 0.00 | 0.00 | 0.00 | 64 | 1016.4 |
| 20260508084501 | 9 | 163 | 0.0 | 1.6 | 0.00 | 0.00 | 0.00 | 62 | 1016.3 |
| 20260508083959 | 9 | 163 | 1.6 | 1.6 | 0.00 | 0.00 | 0.00 | 63 | 1016.3 |
| 20260508083455 | 9 | 163 | 0.0 | 1.6 | 0.00 | 0.00 | 0.00 | 62 | 1016.4 |
| 20260508082950 | 9 | 163 | 1.6 | 1.6 | 0.00 | 0.00 | 0.00 | 63 | 1016.5 |
| 20260508082447 | 9 | 162 | 1.6 | 1.6 | 0.00 | 0.00 | 0.00 | 63 | 1016.3 |
| 20260508081945 | 9 | 162 | 0.0 | 1.6 | 0.00 | 0.00 | 0.00 | 63 | 1016.2 |
| 20260508081442 | 10 | 163 | 0.0 | 3.2 | 0.00 | 0.00 | 0.00 | 61 | 1016.5 |
| 20260508080937 | 10 | 162 | 0.0 | 1.6 | 0.00 | 0.00 | 0.00 | 62 | 1016.2 |
| 20260508080436 | 9 | 162 | 0.0 | 1.6 | 0.00 | 0.00 | 0.00 | 62 | 1016.4 |
| 20260508075932 | 9 | 162 | 0.0 | 1.6 | 0.00 | 0.00 | 0.00 | 63 | 1016.2 |
| 20260508075430 | 9 | 162 | 0.0 | 0.0 | 0.00 | 0.00 | 0.00 | 63 | 1016.3 |
| 20260508074927 | 9 | 162 | 0.0 | 1.6 | 0.00 | 0.00 | 0.00 | 63 | 1016.3 |
| 20260508074425 | 9 | 162 | 0.0 | 0.0 | 0.00 | 0.00 | 0.00 | 63 | 1016.2 |
| 20260508073921 | 9 | 162 | 0.0 | 0.0 | 0.00 | 0.00 | 0.00 | 62 | 1016.4 |
| 20260508073419 | 9 | 162 | 0.0 | 1.6 | 0.00 | 0.00 | 0.00 | 62 | 1016.4 |
| 20260508072916 | 9 | 162 | 0.0 | 1.6 | 0.00 | 0.00 | 0.00 | 61 | 1016.3 |
| 20260508072412 | 10 | 162 | 0.0 | 1.6 | 0.00 | 0.00 | 0.00 | 62 | 1016.1 |
| 20260508071909 | 10 | 162 | 1.6 | 1.6 | 0.00 | 0.00 | 0.00 | 61 | 1016.4 |
| 20260508071407 | 10 | 162 | 1.6 | 1.6 | 0.00 | 0.00 | 0.00 | 60 | 1016.4 |
| 20260508070905 | 10 | 161 | 0.0 | 1.6 | 0.00 | 0.00 | 0.00 | 60 | 1016.4 |
| 20260508070402 | 10 | 161 | 0.0 | 3.2 | 0.00 | 0.00 | 0.00 | 59 | 1016.4 |
| 20260508065900 | 10 | 160 | 0.0 | 1.6 | 0.00 | 0.00 | 0.00 | 60 | 1016.5 |
| 20260508065358 | 10 | 163 | 1.6 | 1.6 | 0.00 | 0.00 | 0.00 | 59 | 1016.5 |
| 20260508064856 | 10 | 159 | 0.0 | 1.6 | 0.00 | 0.00 | 0.00 | 59 | 1016.5 |
| 20260508064353 | 10 | 160 | 0.0 | 3.2 | 0.00 | 0.00 | 0.00 | 59 | 1016.6 |
| 20260508063851 | 10 | 152 | 0.0 | 1.6 | 0.00 | 0.00 | 0.00 | 59 | 1016.7 |
| 20260508063348 | 10 | 159 | 0.0 | 3.2 | 0.00 | 0.00 | 0.00 | 59 | 1016.9 |
| 20260508062845 | 10 | 152 | 0.0 | 1.6 | 0.00 | 0.00 | 0.00 | 58 | 1017.1 |
| 20260508062343 | 10 | 154 | 0.0 | 1.6 | 0.00 | 0.00 | 0.00 | 59 | 1017.1 |
| 20260508061840 | 10 | 159 | 1.6 | 3.2 | 0.00 | 0.00 | 0.00 | 58 | 1017.0 |
| 20260508061337 | 10 | 150 | 0.0 | 1.6 | 0.00 | 0.00 | 0.00 | 58 | 1017.0 |
| 20260508060833 | 10 | 152 | 0.0 | 1.6 | 0.00 | 0.00 | 0.00 | 58 | 1017.1 |
| 20260508060331 | 10 | 152 | 0.0 | 1.6 | 0.00 | 0.00 | 0.00 | 58 | 1017.2 |
| 20260508055826 | 10 | 153 | 0.0 | 1.6 | 0.00 | 0.00 | 0.00 | 57 | 1017.2 |
| 20260508055324 | 10 | 154 | 1.6 | 1.6 | 0.00 | 0.00 | 0.00 | 59 | 1017.2 |
| 20260508054820 | 10 | 130 | 0.0 | 1.6 | 0.00 | 0.00 | 0.00 | 60 | 1017.1 |
| 20260508054318 | 9 | 130 | 0.0 | 0.0 | 0.00 | 0.00 | 0.00 | 60 | 1017.1 |
| 20260508053814 | 10 | 130 | 0.0 | 0.0 | 0.00 | 0.00 | 0.00 | 59 | 1017.2 |
| 20260508053312 | 10 | 130 | 0.0 | 0.0 | 0.00 | 0.00 | 0.00 | 58 | 1017.4 |
| 20260508052809 | 10 | 134 | 0.0 | 0.0 | 0.00 | 0.00 | 0.00 | 57 | 1017.2 |
| 20260508052307 | 10 | 134 | 0.0 | 1.6 | 0.00 | 0.00 | 0.00 | 57 | 1017.2 |
| 20260508051802 | 10 | 132 | 0.0 | 0.0 | 0.00 | 0.00 | 0.00 | 57 | 1017.2 |
| 20260508051257 | 10 | 132 | 0.0 | 0.0 | 0.00 | 0.00 | 0.00 | 57 | 1017.3 |
| 20260508050754 | 10 | 132 | 0.0 | 1.6 | 0.00 | 0.00 | 0.00 | 56 | 1017.1 |
| 20260508050252 | 10 | 135 | 1.6 | 1.6 | 0.00 | 0.00 | 0.00 | 55 | 1017.1 |
| 20260508045747 | 10 | 132 | 0.0 | 1.6 | 0.00 | 0.00 | 0.00 | 57 | 1017.1 |
| 20260508045245 | 10 | 133 | 0.0 | 0.0 | 0.00 | 0.00 | 0.00 | 57 | 1017.1 |
| 20260508044742 | 10 | 134 | 0.0 | 0.0 | 0.00 | 0.00 | 0.00 | 57 | 1017.2 |
| 20260508044239 | 10 | 130 | 0.0 | 0.0 | 0.00 | 0.00 | 0.00 | 57 | 1017.1 |
| 20260508043735 | 10 | 130 | 0.0 | 0.0 | 0.00 | 0.00 | 0.00 | 57 | 1017.0 |
| 20260508043233 | 10 | 130 | 0.0 | 0.0 | 0.00 | 0.00 | 0.00 | 57 | 1017.0 |
| 20260508042729 | 10 | 134 | 0.0 | 0.0 | 0.00 | 0.00 | 0.00 | 57 | 1017.1 |
| 20260508042227 | 10 | 134 | 0.0 | 0.0 | 0.00 | 0.00 | 0.00 | 57 | 1017.1 |
| 20260508041723 | 10 | 129 | 0.0 | 1.6 | 0.00 | 0.00 | 0.00 | 57 | 1016.9 |
| 20260508041220 | 10 | 134 | 0.0 | 0.0 | 0.00 | 0.00 | 0.00 | 57 | 1016.9 |
| 20260508040717 | 10 | 134 | 0.0 | 0.0 | 0.00 | 0.00 | 0.00 | 56 | 1016.9 |
| 20260508040214 | 10 | 142 | 0.0 | 1.6 | 0.00 | 0.00 | 0.00 | 54 | 1017.0 |
| 20260508035711 | 10 | 174 | 1.6 | 1.6 | 0.00 | 0.00 | 0.00 | 54 | 1017.1 |
| 20260508035208 | 11 | 134 | 0.0 | 0.0 | 0.00 | 0.00 | 0.00 | 54 | 1016.9 |
| 20260508034705 | 11 | 196 | 1.6 | 1.6 | 0.00 | 0.00 | 0.00 | 55 | 1016.7 |
| 20260508034202 | 10 | 133 | 0.0 | 1.6 | 0.00 | 0.00 | 0.00 | 55 | 1017.0 |
| 20260508033659 | 10 | 140 | 0.0 | 1.6 | 0.00 | 0.00 | 0.00 | 55 | 1016.9 |
| 20260508033158 | 10 | 151 | 0.0 | 1.6 | 0.00 | 0.00 | 0.00 | 55 | 1016.9 |
| 20260508032654 | 10 | 152 | 1.6 | 3.2 | 0.00 | 0.00 | 0.00 | 55 | 1016.9 |
| 20260508032151 | 10 | 155 | 0.0 | 0.0 | 0.00 | 0.00 | 0.00 | 56 | 1016.9 |
| 20260508031648 | 10 | 160 | 1.6 | 3.2 | 0.00 | 0.00 | 0.00 | 56 | 1017.0 |
| 20260508031144 | 10 | 142 | 0.0 | 0.0 | 0.00 | 0.00 | 0.00 | 57 | 1016.9 |
| 20260508030641 | 10 | 158 | 0.0 | 1.6 | 0.00 | 0.00 | 0.00 | 57 | 1016.9 |
| 20260508030139 | 10 | 170 | 1.6 | 1.6 | 0.00 | 0.00 | 0.00 | 56 | 1017.0 |
| 20260508025635 | 10 | 172 | 0.0 | 1.6 | 0.00 | 0.00 | 0.00 | 58 | 1016.7 |
| 20260508025132 | 10 | 169 | 1.6 | 1.6 | 0.00 | 0.00 | 0.00 | 57 | 1016.9 |
| 20260508024627 | 10 | 158 | 0.0 | 1.6 | 0.00 | 0.00 | 0.00 | 57 | 1017.0 |